Dewpoint
52 52 52 52 53 53 53 53 53 53 54 54 54 54 53 53 52 52 38 33 40 51 60 69 66 64 64 63 65 58 54 51 50 51 54 58 58 61 60 59 59 59 59 61 65
52 51 52 52 52 52 53 53 53 53 53 54 54 53 53 52 50 45 40 47 52 56 65 63 59 61 59 61 63 59 56 52 51 53 56 58 58 59 59 58 59 60 61 63 65
51 51 51 51 51 52 52 53 53 53 53 53 53 52 53 52 41 28 50 57 52 54 59 60 56 56 55 60 60 58 56 56 53 54 59 58 59 59 58 57 59 59 62 63 63
51 51 51 51 51 51 52 53 53 53 53 54 53 53 53 51 12 33 57 61 54 54 60 51 52 50 48 52 58 57 58 59 57 55 55 55 57 58 58 58 60 61 62 62 61
50 51 51 51 51 51 52 52 52 53 53 54 54 53 51 35 22 40 57 56 55 57 52 44 45 44 38 47 53 56 57 57 57 56 55 55 55 58 58 61 61 61 61 61 60
51 51 52 51 51 51 51 51 52 52 54 56 53 53 46 19 32 42 53 53 54 55 46 47 45 44 40 47 46 52 54 55 55 54 53 53 52 57 60 60 60 61 60 60 60
51 51 51 51 51 50 51 51 51 53 55 55 54 51 42 26 41 46 51 51 53 50 45 45 45 40 36 35 42 46 47 45 48 50 53 51 50 53 59 60 60 60 60 60 60
51 51 50 50 50 50 51 51 52 54 54 55 55 51 33 42 45 45 43 49 51 47 38 34 34 39 32 32 29 30 38 44 47 47 48 49 47 55 59 59 59 59 59 59 59
51 50 50 50 50 50 50 52 54 55 56 55 53 48 14 35 20 21 32 34 44 49 37 32 30 30 28 29 25 32 20 36 45 45 49 49 48 57 59 58 58 59 59 59 59
51 50 50 49 50 50 49 52 57 57 56 55 50 36 17 11 16 17 26 44 43 40 30 27 31 25 25 24 12 20 23 35 41 45 45 48 48 58 57 57 57 58 58 59 59
50 50 49 49 49 49 45 33 26 21 26 17 15 15 12 13 17 18 33 39 39 29 20 26 20 23 19 22 23 28 29 24 40 45 44 44 45 56 58 57 57 57 58 58 58
50 50 49 49 49 48 36 28 30 31 24 20 18 16 16 15 14 15 25 36 37 30 26 23 17 18 19 20 23 24 28 30 31 38 44 45 44 52 58 57 57 57 57 57 57
50 49 49 49 48 35 30 29 33 30 18 15 15 12 8 13 13 13 22 22 33 32 28 20 20 21 19 18 19 20 22 27 30 34 37 43 42 46 56 58 58 57 56 56 56
50 49 49 48 29 36 26 33 38 31 10 9 9 8 10 12 10 16 32 22 19 31 30 29 26 22 19 17 17 14 20 26 28 27 32 39 38 43 49 57 58 58 57 55 55
50 49 48 48 39 29 32 37 29 18 -10 9 12 10 14 11 17 14 34 31 23 24 31 29 28 25 21 20 18 14 16 15 22 28 28 29 37 38 46 53 56 57 58 59 58
49 49 48 44 40 34 37 35 21 10 -2 10 13 9 12 17 16 21 32 34 36 32 31 26 29 29 26 22 20 18 21 18 14 18 25 30 30 33 40 48 53 56 58 59 59
49 48 46 44 32 36 37 21 12 5 14 12 13 9 13 14 13 22 30 29 28 20 23 29 25 25 27 26 23 21 18 17 17 11 19 28 30 31 36 43 48 54 57 58 59
49 45 40 41 37 37 25 19 8 17 13 13 13 10 12 14 14 19 22 22 29 33 30 25 14 24 24 25 24 23 21 14 15 9 6 22 27 30 33 34 44 49 53 57 59
46 38 37 35 35 33 25 18 14 18 22 19 14 12 10 14 15 13 19 25 31 27 22 29 27 32 31 31 25 24 22 21 17 24 16 8 24 30 33 34 35 38 51 55 58
41 36 33 36 33 27 24 19 23 27 26 21 14 15 13 14 13 13 14 28 30 29 32 28 18 29 31 32 30 26 25 23 22 13 14 14 15 20 30 33 35 36 46 52 56
37 31 33 36 32 29 23 25 27 28 28 23 18 16 16 15 16 14 13 26 27 27 33 32 25 15 27 29 25 26 25 25 24 22 14 12 15 24 27 34 36 38 41 46 52
38 24 34 33 28 28 26 30 30 28 30 28 25 21 18 19 17 17 15 19 29 30 27 33 27 20 20 29 33 32 28 24 24 24 25 21 16 27 31 32 34 34 41 44 49
37 35 35 34 29 29 31 30 30 29 29 28 26 26 23 20 20 21 24 32 32 30 30 34 28 20 6 15 29 28 30 29 26 28 26 22 20 26 30 31 35 36 38 46 51
36 26 31 33 33 31 30 29 29 31 31 32 29 28 27 25 25 23 24 29 32 30 35 36 30 23 13 16 24 28 28 27 28 23 26 27 26 25 25 30 30 32 33 37 47
37 34 35 30 32 33 32 31 29 30 33 32 30 29 29 25 26 25 25 25 29 32 36 33 23 23 19 20 22 25 25 27 25 26 25 25 28 30 31 30 30 35 40 41 39
36 36 36 35 35 34 33 32 33 34 35 31 32 31 36 31 29 26 26 25 26 32 32 35 23 25 20 18 24 23 23 24 24 26 27 28 28 31 39 47 46 51 53 53 53
41 42 39 35 33 34 35 35 35 37 36 36 36 35 33 32 33 33 32 30 29 28 30 31 28 22 13 24 26 22 23 23 25 32 28 28 30 42 43 50 49 49 50 52 55
Wind_Speed
22 22 22 22 23 22 23 23 22 20 17 17 14 12 10 9 7 4 9 8 9 12 13 20 13 14 10 10 5 2 3 5 3 3 1 9 7 7 10 17 5 9 10 21 30
23 24 23 23 23 23 22 22 22 21 20 16 14 11 8 6 4 10 12 9 10 15 24 26 19 19 8 8 5 5 4 4 2 1 4 11 9 11 8 15 5 8 14 31 32
25 25 25 26 25 23 23 21 21 21 19 16 12 8 6 1 3 2 6 17 19 18 18 19 19 15 8 8 8 7 6 2 2 1 9 9 9 6 14 10 11 22 27 33 32
27 28 28 28 28 27 22 22 21 19 18 14 8 5 1 2 1 7 22 3 24 23 21 18 18 13 10 10 14 7 11 12 4 5 7 5 7 7 12 2 14 26 35 36 35
28 29 29 30 30 29 25 21 19 19 15 12 5 2 1 2 5 11 12 14 22 21 28 21 22 15 15 11 9 18 7 6 10 5 4 4 5 4 10 5 19 26 34 33 31
28 29 29 29 30 30 27 22 18 16 13 7 4 6 1 0 3 10 5 12 18 17 25 19 17 12 11 5 14 5 19 12 4 5 6 7 3 7 4 15 23 29 33 34 32
28 29 30 30 31 31 29 24 19 12 3 8 10 2 2 1 4 10 2 8 12 11 23 9 7 15 5 8 10 12 4 6 13 9 6 7 8 10 14 19 26 28 31 32 30
30 31 32 32 31 30 28 26 13 0 9 9 8 1 2 3 5 5 2 4 10 6 7 4 5 9 3 4 2 7 10 6 4 14 6 9 4 8 19 23 25 27 30 31 30
29 30 32 33 32 27 28 15 8 7 8 6 2 2 5 3 8 4 2 4 13 11 0 6 3 4 6 4 7 6 13 18 6 9 7 14 2 11 18 21 24 26 30 31 29
29 31 33 33 33 27 22 1 9 5 2 5 3 0 7 11 8 6 2 14 6 16 8 5 8 10 10 16 20 14 18 12 19 12 14 13 10 12 17 20 22 25 27 29 30
30 32 34 34 32 29 8 2 5 2 6 4 2 1 6 14 2 8 4 8 14 12 14 10 16 32 25 16 16 10 8 19 13 10 12 17 14 14 18 18 21 24 27 29 32
33 33 35 34 30 22 3 7 6 4 7 3 5 5 6 3 4 18 5 3 6 12 12 7 27 21 13 16 17 21 6 14 18 4 12 9 18 15 22 26 29 31 30 31 29
31 31 33 33 21 3 6 8 3 2 3 4 2 4 4 3 4 11 9 1 8 9 20 19 4 17 17 17 20 23 24 9 9 7 12 8 19 16 18 17 18 21 24 25 30
29 32 32 35 2 4 2 4 10 6 2 1 1 5 8 5 4 6 9 2 5 15 16 16 20 10 20 26 22 26 20 21 12 6 18 16 21 17 19 24 25 26 28 29 32
31 32 30 12 5 3 10 13 3 3 3 4 3 3 7 6 7 9 7 1 2 2 6 11 13 22 18 20 23 19 14 19 23 17 12 13 14 24 14 22 28 29 30 31 32
34 33 28 1 2 6 12 5 2 3 6 2 3 5 5 7 5 8 7 6 1 3 3 12 8 16 22 16 20 12 5 14 19 21 26 27 18 23 19 25 25 27 29 31 31
34 33 10 3 10 18 10 2 2 4 1 2 4 3 3 5 5 7 5 11 5 3 6 3 14 11 13 16 21 25 17 12 12 20 34 24 24 25 18 19 21 27 31 33 33
34 18 1 3 15 10 2 1 6 3 3 2 1 0 1 2 1 4 2 3 8 4 2 5 14 14 11 24 16 25 26 14 17 22 27 22 18 22 34 23 13 19 25 24 28
22 5 3 13 13 3 1 2 1 1 3 3 3 3 4 2 2 1 3 1 2 5 2 3 8 3 4 4 22 18 35 27 11 6 15 22 27 17 18 26 28 23 17 22 28
8 5 9 24 8 1 2 1 1 3 5 2 4 3 6 3 2 0 1 2 3 2 2 1 8 3 4 4 15 21 21 25 23 24 18 11 28 25 29 21 22 26 23 22 25
4 1 16 24 2 8 3 2 2 4 6 3 3 5 4 5 4 4 2 3 4 2 1 1 3 6 7 9 26 18 17 20 23 24 23 21 16 22 26 27 23 25 27 25 25
5 3 17 15 8 4 4 7 6 3 4 3 4 6 6 5 4 6 7 6 6 4 2 2 4 8 11 8 5 6 13 31 20 27 31 21 23 6 21 27 29 28 22 26 27
4 4 8 10 6 6 6 4 3 6 7 4 3 5 4 3 4 9 5 3 6 4 4 5 4 6 9 10 4 6 2 8 17 13 28 30 25 16 12 8 10 16 17 18 22
2 3 7 7 3 5 6 4 7 8 0 5 5 1 2 8 6 3 5 3 3 3 5 3 4 9 14 12 13 9 7 5 12 26 27 23 25 30 27 15 13 8 9 10 16
6 4 3 6 9 8 5 4 7 6 3 5 3 4 4 7 8 9 6 4 7 5 4 4 7 9 20 22 21 22 24 20 14 18 20 26 21 23 26 31 27 18 4 6 7
3 3 2 2 2 4 3 2 4 6 4 7 8 9 6 8 10 7 9 9 9 10 8 6 7 8 22 19 18 24 25 23 22 21 15 17 15 11 13 9 5 6 6 8 11
2 2 1 3 4 4 3 4 6 14 9 13 10 9 9 15 13 17 13 14 14 6 11 7 4 6 10 10 16 15 28 24 17 8 21 22 9 12 12 2 6 8 10 10 12
Wind_Direction
349 347 345 341 338 336 332 330 328 323 315 313 314 313 311 314 304 207 240 223 183 169 164 146 156 151 160 180 213 151 234 236 254 206 170 152 150 146 113 138 144 177 159 153 158
348 347 343 340 338 335 332 329 325 319 313 310 309 311 304 316 280 246 250 249 209 166 161 162 158 155 169 187 199 204 243 231 250 156 197 168 169 140 131 145 122 124 123 144 157
346 345 343 338 339 336 333 330 323 318 312 309 307 305 301 276 280 209 322 281 204 190 173 163 151 159 168 178 192 200 238 237 307 185 143 136 143 136 146 187 184 164 151 156 162
345 342 341 337 338 334 334 330 324 317 314 308 306 303 310 208 188 2 329 236 172 168 164 161 168 171 185 190 204 232 245 255 323 160 174 177 160 173 182 130 175 166 158 160 167
342 338 337 334 334 331 333 328 322 315 315 303 299 236 185 243 266 343 359 141 156 163 171 174 177 179 194 203 199 226 261 261 243 249 287 179 208 166 205 136 147 156 159 166 169
340 336 336 333 332 331 332 328 321 316 315 281 182 156 189 235 320 337 10 148 164 163 168 174 187 186 201 195 206 223 240 260 284 242 282 264 258 190 133 142 146 159 165 169 175
340 337 337 334 333 333 331 327 320 321 347 141 156 155 151 329 336 337 190 169 171 171 173 171 174 193 156 211 236 233 323 282 248 239 244 233 226 217 150 154 155 167 170 171 178
340 338 337 334 334 335 330 325 322 82 125 145 159 314 84 241 303 318 163 125 166 169 164 170 154 198 250 296 215 212 220 248 198 199 223 190 241 166 158 159 165 172 174 174 180
338 336 335 335 334 339 333 341 103 113 136 153 137 344 34 318 340 347 247 157 170 179 37 192 179 217 221 232 212 192 217 217 246 192 194 200 260 158 167 169 170 176 178 179 183
339 337 337 337 334 337 338 82 109 117 176 213 227 166 11 341 330 324 360 146 136 161 188 138 188 206 214 210 210 210 214 219 212 194 197 205 229 160 176 180 180 181 182 185 189
341 340 338 335 331 329 347 294 355 356 27 347 6 59 313 335 347 37 91 121 112 156 184 184 194 212 211 217 229 251 231 231 209 206 212 225 233 196 184 189 185 188 190 192 195
342 340 336 333 326 322 324 68 83 303 314 286 268 273 265 303 357 22 13 172 158 176 168 181 223 220 223 219 227 242 270 234 248 220 217 219 234 209 191 199 193 191 195 196 193
337 336 333 333 325 13 56 65 12 223 256 304 297 343 1 343 51 16 12 285 197 179 192 209 227 200 201 205 217 231 234 230 246 252 241 230 247 219 212 212 202 205 208 204 202
339 339 341 334 96 348 53 357 323 187 319 147 22 19 342 352 96 31 11 349 218 216 193 224 226 191 208 218 208 228 229 236 257 290 230 213 241 211 214 207 208 206 206 208 205
342 341 340 358 322 30 326 323 131 217 253 47 45 347 8 56 329 20 13 34 190 187 225 209 203 209 221 226 209 230 233 232 242 255 277 230 238 234 204 212 215 212 210 210 207
338 335 335 121 272 312 330 316 182 167 218 85 40 20 31 28 16 324 1 26 41 272 214 255 251 209 216 213 202 221 221 227 234 237 246 234 231 234 209 213 219 214 215 212 209
334 329 328 315 333 323 319 151 201 211 39 73 31 15 58 9 21 10 38 45 13 243 230 302 238 228 192 207 205 209 196 203 214 214 234 230 233 230 214 215 214 205 212 214 208
332 333 249 243 318 307 258 161 237 108 86 33 41 268 193 357 31 359 74 69 52 7 307 235 230 210 203 216 205 203 203 197 208 218 231 220 235 222 229 239 230 228 217 211 207
330 340 327 339 334 248 162 232 331 94 345 310 288 227 177 206 307 24 54 30 61 24 330 283 246 290 252 296 217 195 211 215 258 252 248 220 236 263 230 238 235 235 221 206 205
337 332 3 342 339 180 151 153 109 38 351 298 253 227 214 198 247 329 209 142 150 12 323 81 291 261 297 296 242 224 207 206 220 233 234 212 219 228 209 224 225 227 219 213 208
19 82 347 347 352 51 91 41 335 347 352 273 258 250 228 226 219 214 207 161 186 148 335 198 235 269 296 201 216 205 205 213 214 225 233 242 229 225 224 211 220 223 222 220 210
354 61 346 343 45 35 41 338 330 335 357 313 290 262 237 191 227 236 244 233 167 155 201 216 263 263 261 281 309 322 244 212 219 218 230 253 243 225 215 213 218 222 221 221 214
33 321 342 16 66 36 341 344 304 339 348 333 317 15 14 229 258 240 230 171 175 156 175 171 240 282 258 233 169 227 225 277 242 238 229 222 226 262 275 234 213 225 228 226 225
13 28 35 52 66 54 25 14 352 334 27 343 304 4 230 243 230 265 224 205 204 204 175 189 230 253 263 321 324 293 309 301 265 223 226 231 237 236 253 250 251 250 254 241 225
21 62 28 25 34 22 4 356 353 350 338 327 263 247 257 249 237 230 221 274 225 219 159 212 255 266 280 289 285 273 268 267 260 243 227 226 241 247 236 248 261 287 276 273 257
55 36 71 74 335 319 12 346 300 302 245 265 238 261 224 216 231 248 233 218 221 203 187 183 259 283 291 292 272 261 253 248 249 243 247 256 256 262 282 291 287 336 327 295 292
58 88 92 13 353 339 330 308 291 301 234 246 269 289 273 275 289 258 257 266 256 252 212 196 223 293 278 322 313 268 242 233 232 217 214 215 206 305 284 306 15 350 331 309 297